This is the latest recevied weather packets stored in our database for station/object KR4ELZ. If no packets are shown the sender has not sent any weather packets the latest 10 day(s).
| Time | Temp. | Humidity | Pressure | Rain* | Wind** | Luminosity | Snow |
|---|---|---|---|---|---|---|---|
| 1777073703 | 18.33° C | 97% | 1006.3 hPa | 0 mm | - | 13 W/m² | - |
| 1777073400 | 18.33° C | 97% | 1007.3 hPa | 0 mm | - | 13 W/m² | - |
| 1777073095 | 18.33° C | 97% | 1007.5 hPa | 0 mm | - | 14 W/m² | - |
| 1777072791 | 18.33° C | 97% | 1007.9 hPa | 0 mm | - | 16 W/m² | - |
| 1777072485 | 18.33° C | 98% | 1007.9 hPa | 0 mm | - | 20 W/m² | - |
| 1777072184 | 18.33° C | 98% | 1008.1 hPa | 0 mm | - | 20 W/m² | - |
| 1777071881 | 18.33° C | 98% | 1008.2 hPa | 0 mm | - | 23 W/m² | - |
| 1777071577 | 18.33° C | 98% | 1008 hPa | 0 mm | - | 26 W/m² | - |
| 1777071272 | 18.89° C | 99% | 1008.2 hPa | 0 mm | - | 30 W/m² | - |
| 1777070967 | 18.89° C | 99% | 1008.3 hPa | 0 mm | - | 30 W/m² | - |
| 1777070665 | 18.89° C | 99% | 1008.3 hPa | 0 mm | - | 28 W/m² | - |
| 1777070361 | 18.89° C | 99% | 1008.5 hPa | 0 mm | - | 26 W/m² | - |
| 1777070060 | 18.89° C | 99% | 1008.4 hPa | 0 mm | - | 27 W/m² | - |
| 1777069755 | 18.89° C | 99% | 1008.2 hPa | 0 mm | - | 31 W/m² | - |
| 1777069450 | 18.89° C | 99% | 1008.2 hPa | 0 mm | - | 37 W/m² | - |
| 1777069147 | 18.89° C | 99% | 1008 hPa | 0 mm | - | 36 W/m² | - |
| 1777068843 | 18.89° C | 99% | 1008.3 hPa | 0 mm | - | 36 W/m² | - |
| 1777068539 | 18.89° C | 99% | 1008.7 hPa | 0 mm | - | 36 W/m² | - |
| 1777068236 | 19.44° C | 99% | 1009 hPa | 0 mm | - | 40 W/m² | - |
| 1777067933 | 18.89° C | 99% | 1009.2 hPa | 0 mm | - | 44 W/m² | - |
| 1777067632 | 19.44° C | 99% | 1009.1 hPa | 0 mm | - | 46 W/m² | - |
| 1777067331 | 19.44° C | 99% | 1009 hPa | 0 mm | - | 44 W/m² | - |
| 1777067026 | 19.44° C | 99% | 1009.2 hPa | 0 mm | - | 43 W/m² | - |
| 1777066721 | 19.44° C | 99% | 1009.2 hPa | 0 mm | - | 39 W/m² | - |
| 1777066418 | 19.44° C | 99% | 1009.2 hPa | 0 mm | - | 39 W/m² | - |
* Rain latest hour (hover to see other rain measurements)
** Current wind speed in m/s (hover to see current wind gust speed)